Weather History for Corning, AR

Change the Weather History Date:

Sunday, December 25, 2011

  Actual Average (KARG) Record (KARG)
Temperature  
Mean Temperature 44 °F -  
Max Temperature 57 °F 42 °F 57 °F (2011)
Min Temperature 32 °F 28 °F 3 °F (2004)
Degree Days  
Heating Degree Days 20    
Moisture  
Dew Point 34 °F    
Average Humidity 75    
Maximum Humidity 100    
Minimum Humidity 38    
Precipitation  
Precipitation 0.00 in - - ()
Sea Level Pressure  
Sea Level Pressure 30.37 in    
Wind  
Wind Speed 3 mph (WSW)    
Max Wind Speed 10 mph    
Max Gust Speed -    
Visibility 3 miles    
Events Fog    
Averages and records for this station are not official NWS values.
T = Trace of Precipitation, MM = Missing Value Source: NWS Daily Summary

Daily Weather History Graph

Daily Weather History Graph

Search for Another Location

Airport:

Trip Planner

Search our weather history database for the weather conditions in past years. The results will help you decide how hot, cold, wet, or windy it might be!

Date:

Astronomy

Dec. 25, 2011 Rise Set
Actual Time 7:12 AM CST 4:53 PM CST
Civil Twilight 6:43 AM CST 5:21 PM CST
Nautical Twilight 6:11 AM CST 5:54 PM CST
Astronomical Twilight 5:39 AM CST 6:25 PM CST
Moon 7:51 AM CST (12/25) 6:12 PM CST (12/25)
Length of Visible Light 10h 38m
Length of Day
9h 40m
New Moon, 1% of the Moon is Illuminated
Dec 25
New Moon
Jan 1
First Quarter
Jan 9
Full
Jan 16
Last Quarter
Jan 23
New

Hourly Weather History & Observations

Time (CST) Temp. Windchill Dew Point Humidity Pressure Visibility Wind Dir Wind Speed Gust Speed Precip Events Conditions
12:15 AM 39.2 °F - 35.6 °F 87% 30.39 in - Calm Calm - N/A   Unknown
12:35 AM 37.4 °F - 35.6 °F 93% 30.38 in - Calm Calm - N/A   Unknown
12:55 AM 37.4 °F 34.9 °F 35.6 °F 93% 30.39 in - NW 3.5 mph - N/A   Unknown
1:15 AM 37.4 °F - 35.6 °F 93% 30.38 in - Calm Calm - N/A   Unknown
1:35 AM 37.4 °F 34.9 °F 35.6 °F 93% 30.39 in - SSW 3.5 mph - N/A   Unknown
1:55 AM 37.4 °F 32.8 °F 35.6 °F 93% 30.39 in - SW 5.8 mph - N/A   Unknown
2:15 AM 37.4 °F 34.9 °F 35.6 °F 93% 30.40 in - SW 3.5 mph - N/A   Unknown
2:35 AM 37.4 °F 33.8 °F 35.6 °F 93% 30.39 in - SW 4.6 mph - N/A   Unknown
2:55 AM 37.4 °F 34.9 °F 35.6 °F 93% 30.38 in - NW 3.5 mph - N/A   Unknown
3:15 AM 37.4 °F 34.9 °F 35.6 °F 93% 30.38 in - SW 3.5 mph - N/A   Unknown
3:35 AM 37.4 °F 33.8 °F 35.6 °F 93% 30.37 in - WSW 4.6 mph - N/A   Unknown
3:55 AM 37.4 °F - 35.6 °F 93% 30.36 in - Calm Calm - N/A   Unknown
4:15 AM 35.6 °F 32.8 °F 35.6 °F 100% 30.37 in - SW 3.5 mph - N/A   Unknown
4:35 AM 35.6 °F 31.7 °F 35.6 °F 100% 30.37 in - WNW 4.6 mph - N/A   Unknown
4:55 AM 35.6 °F - 35.6 °F 100% 30.37 in - Calm Calm - N/A   Unknown
5:15 AM 35.6 °F 30.7 °F 35.6 °F 100% 30.36 in - NNW 5.8 mph - N/A   Unknown
5:35 AM 35.6 °F - 33.8 °F 93% 30.37 in - Calm Calm - N/A   Unknown
5:55 AM 35.6 °F - 33.8 °F 93% 30.38 in - Calm Calm - N/A   Unknown
6:15 AM 33.8 °F 30.8 °F 33.8 °F 100% 30.37 in - SW 3.5 mph - N/A   Unknown
6:35 AM 33.8 °F 29.6 °F 32.0 °F 93% 30.38 in - SSW 4.6 mph - N/A   Unknown
6:55 AM 32.0 °F 27.5 °F 32.0 °F 100% 30.38 in 0.5 mi WSW 4.6 mph - N/A Fog Fog
7:15 AM 33.8 °F 29.6 °F 32.0 °F 93% 30.38 in - West 4.6 mph - N/A   Unknown
7:35 AM 33.8 °F 30.8 °F 32.0 °F 93% 30.39 in - West 3.5 mph - N/A   Unknown
7:55 AM 33.8 °F 28.6 °F 32.0 °F 93% 30.40 in - WSW 5.8 mph - N/A   Unknown
8:15 AM 33.8 °F 29.6 °F 32.0 °F 93% 30.40 in - WSW 4.6 mph - N/A   Unknown
8:35 AM 35.6 °F 32.8 °F 35.6 °F 100% 30.41 in - West 3.5 mph - N/A   Unknown
8:55 AM 37.4 °F 33.8 °F 35.6 °F 93% 30.41 in - West 4.6 mph - N/A   Unknown
9:15 AM 39.2 °F 35.0 °F 32.0 °F 75% 30.42 in 10.0 mi West 5.8 mph - N/A   Clear
9:35 AM 41.0 °F 37.1 °F 32.0 °F 70% 30.43 in - West 5.8 mph - N/A   Clear
9:55 AM 44.6 °F 42.2 °F 32.0 °F 61% 30.42 in - West 4.6 mph - N/A   Clear
10:15 AM 44.6 °F 40.7 °F 32.0 °F 61% 30.42 in - WNW 6.9 mph - N/A   Clear
10:35 AM 46.4 °F 43.5 °F 32.0 °F 57% 30.42 in - NW 5.8 mph - N/A   Clear
10:55 AM 46.4 °F 42.9 °F 32.0 °F 57% 30.41 in - NW 6.9 mph - N/A   Clear
11:15 AM 48.2 °F - 32.0 °F 54% 30.40 in - West 5.8 mph - N/A   Clear
11:35 AM 48.2 °F - 32.0 °F 54% 30.39 in - Calm Calm - N/A   Clear
11:55 AM 50.0 °F - 32.0 °F 50% 30.38 in - SSW 3.5 mph - N/A   Clear
12:15 PM 50.0 °F - 33.8 °F 54% 30.37 in - South 4.6 mph - N/A   Clear
12:35 PM 53.6 °F - 32.0 °F 44% 30.35 in 1.0 mi South 5.8 mph - N/A   Haze
1:15 PM 55.4 °F - 32.0 °F 41% 30.33 in 2.0 mi SSW 10.4 mph - N/A   Haze
1:35 PM 55.4 °F - 30.2 °F 38% 30.33 in - SW 5.8 mph - N/A   Clear
1:55 PM 57.2 °F - 32.0 °F 38% 30.33 in - SW 8.1 mph - N/A   Clear
2:15 PM 57.2 °F - 32.0 °F 38% 30.33 in - SW 6.9 mph - N/A   Clear
2:35 PM 57.2 °F - 32.0 °F 38% 30.33 in - SW 6.9 mph - N/A   Clear
2:55 PM 57.2 °F - 32.0 °F 38% 30.33 in - SSW 5.8 mph - N/A   Clear
3:15 PM 57.2 °F - 33.8 °F 41% 30.33 in - SSW 8.1 mph - N/A   Clear
3:55 PM 53.6 °F - 39.2 °F 58% 30.33 in - South 9.2 mph - N/A   Clear
4:15 PM 51.8 °F - 39.2 °F 62% 30.33 in - SSW 5.8 mph - N/A   Clear
4:35 PM 50.0 °F - 37.4 °F 62% 30.33 in - Calm Calm - N/A   Clear
4:55 PM 50.0 °F - 37.4 °F 62% 30.33 in - South 3.5 mph - N/A   Clear
5:15 PM 50.0 °F - 35.6 °F 58% 30.34 in - SE 3.5 mph - N/A   Clear
5:35 PM 48.2 °F - 37.4 °F 66% 30.35 in - Calm Calm - N/A   Clear
5:55 PM 46.4 °F - 37.4 °F 71% 30.36 in - Calm Calm - N/A   Clear
6:15 PM 46.4 °F - 35.6 °F 66% 30.36 in - Calm Calm - N/A   Clear
6:35 PM 44.6 °F - 35.6 °F 71% 30.35 in - Calm Calm - N/A   Clear
6:55 PM 42.8 °F - 35.6 °F 76% 30.35 in - Calm Calm - N/A   Clear
7:15 PM 46.4 °F - 35.6 °F 66% 30.35 in - Calm Calm - N/A   Clear
7:35 PM 42.8 °F 41.1 °F 35.6 °F 76% 30.35 in - NNW 3.5 mph - N/A   Clear
7:55 PM 42.8 °F 39.3 °F 35.6 °F 76% 30.36 in - North 5.8 mph - N/A   Clear
8:15 PM 44.6 °F 42.2 °F 35.6 °F 71% 30.35 in - North 4.6 mph - N/A   Clear
8:35 PM 39.2 °F - 35.6 °F 87% 30.36 in - Calm Calm - N/A   Unknown
8:55 PM 37.4 °F - 33.8 °F 87% 30.36 in - Calm Calm - N/A   Unknown
9:15 PM 39.2 °F - 35.6 °F 87% 30.36 in - Calm Calm - N/A   Unknown
9:35 PM 39.2 °F 35.0 °F 35.6 °F 87% 30.37 in - NE 5.8 mph - N/A   Unknown
9:55 PM 39.2 °F 33.6 °F 32.0 °F 75% 30.37 in - NE 8.1 mph - N/A   Unknown
10:15 PM 39.2 °F 32.0 °F 32.0 °F 75% 30.36 in - NE 11.5 mph - N/A   Clear
10:35 PM 37.4 °F 30.8 °F 33.8 °F 87% 30.36 in - NE 9.2 mph - N/A   Unknown
10:55 PM 37.4 °F 30.8 °F 33.8 °F 87% 30.36 in - NE 9.2 mph - N/A   Unknown
11:15 PM 37.4 °F 33.8 °F 33.8 °F 87% 30.36 in - ENE 4.6 mph - N/A   Unknown
11:35 PM 37.4 °F 33.8 °F 33.8 °F 87% 30.37 in - NNE 4.6 mph - N/A   Unknown
11:55 PM 37.4 °F 32.8 °F 33.8 °F 87% 30.36 in - NNE 5.8 mph - N/A   Unknown